{"data":{"norad_id":63978,"intl_designator":"2025-099AC","name":"STARLINK-33642","alt_names":[],"object_type":"PAYLOAD","status":"ACTIVE","operator":null,"country":"US","launch_date":"2025-05-13","launch_site_code":"AFETR","launch_vehicle":null,"mission":null,"orbit_class":"UNKNOWN","rcs_meters":null,"size_class":null,"mass_kg":null,"dimensions":null,"purposes":["comms"],"wikipedia_slug":null,"has_3d_model":false,"image_url":null,"decayed_at":null,"tle_current":{"epoch":"2026-09-20T01:28:31.468512Z","epoch_age_seconds":181625,"freshness":"STALE","line1":"1 63978U 25099AC  26263.06147533  .00010439  00000+0  38805-3 0  9999","line2":"2 63978  43.0003 154.9755 0001933 271.2701  88.7929 15.27605211 77015","mean_motion":15.27605211,"eccentricity":0.0001933,"inclination_deg":43.0003,"raan_deg":154.9755,"arg_perigee_deg":271.2701,"mean_anomaly_deg":88.7929,"bstar":0.00038805,"rev_number":7701,"period_min":94.265192972034,"perigee_km":481.64735359408,"apogee_km":484.29985895446,"semimajor_km":6861.1106062743,"source":"CELESTRAK","updated_at":"2026-09-21T09:00:35.179161Z"}}}